This demonstration page uses our WeatherBlox Daily Observations layout. Learn more.

Left ArrowRight Arrow

Hourly Observations for September 18, 2015

Temp ( °F °C ) Dew Point ( °F °C ) Humidity (%) Winds ( mph kmh ) Pressure ( in mb ) Visibility ( mi km ) Precip ( " mm )
12:52 am 00:52 Clear 62 16.7 58 14.4 86 86 N 6 9 29.87 1012 10 16 0.00 0.00
1:52 am 01:52 Clear 60 15.6 57 13.9 90 90 NNW 7 11 29.88 1012 10 16 0.00 0.00
2:52 am 02:52 Clear 60 15.6 57 13.9 90 90 NNE 3 6 29.88 1012 10 16 0.00 0.00
3:52 am 03:52 Partly Cloudy 60 15.6 57 13.9 90 90 NNW 8 13 29.86 1011 10 16 0.00 0.00
4:52 am 04:52 Cloudy 60 15.6 57 13.9 90 90 N 8 13 29.86 1011 10 16 0.00 0.00
5:52 am 05:52 Mostly Cloudy 60 15.6 57 13.9 90 90 N 8 13 29.89 1012 10 16 0.00 0.00
6:52 am 06:52 Mostly Cloudy 60 15.6 56 13.3 86 86 N 13 20 29.89 1012 10 16 0.00 0.00
7:52 am 07:52 Partly Cloudy 60 15.6 56 13.3 86 86 N 9 15 29.90 1013 10 16 0.00 0.00
8:52 am 08:52 Cloudy 61 16.1 55 12.8 81 81 NE 10 17 29.88 1012 10 16 0.00 0.00
9:52 am 09:52 Mostly Cloudy 62 16.7 54 12.2 75 75 NNE 15 24 29.84 1010 10 16 0.00 0.00
10:18 am 10:18 Cloudy 61 16 54 12 77 77 NW 15 24 29.91 1013 10 16 0.00 0.00
10:52 am 10:52 Mostly Cloudy with Light Rain 59 15 55 12.8 87 87 NE 8 13 29.86 1011 6 10 0.07 1.78
11:37 am 11:37 Mostly Cloudy with Thunderstorms 59 15 56 13.3 90 90 NNW 13 20 29.88 1012 10 16 0.04 1.02
11:52 am 11:52 Mostly Cloudy with Thunderstorms 59 15 56 13.3 90 90 NE 8 13 29.87 1011 10 16 0.04 1.02
12:12 pm 12:12 Mostly Cloudy 59 15 55 13 88 88 NNE 10 17 29.88 1012 10 16 0.00 0.00
12:52 pm 12:52 Mostly Cloudy 61 16.1 57 13.9 87 87 N 14 22 29.89 1012 10 16 0.00 0.03
1:52 pm 13:52 Cloudy 62 16.7 57 13.9 84 84 N 13 20 29.90 1013 10 16 0.00 0.03
2:52 pm 14:52 Cloudy with Light Rain 64 17.8 57 13.9 78 78 NNW 13 20 29.91 1013 10 16 0.00 0.03
3:52 pm 15:52 Mostly Cloudy 63 17.2 54 12.2 73 73 N 15 24 29.91 1013 10 16 0.00 0.03
4:52 pm 16:52 Mostly Cloudy 64 17.8 54 12.2 70 70 NNW 16 26 29.91 1013 10 16 0.00 0.00
5:52 pm 17:52 Partly Cloudy 66 18.9 54 12.2 65 65 NNW 12 19 29.91 1013 10 16 0.00 0.00
6:52 pm 18:52 Mostly Sunny 62 16.7 53 11.7 73 73 NNW 12 19 29.93 1014 10 16 0.00 0.00
7:52 pm 19:52 Mostly Clear 58 14.4 53 11.7 84 84 NNW 10 17 29.96 1014 10 16 0.00 0.00
8:52 pm 20:52 Mostly Clear 56 13.3 53 11.7 90 90 NNW 10 17 29.98 1015 10 16 0.00 0.00
9:33 pm 21:33 Mostly Cloudy 56 13.3 53 11.7 90 90 NNW 12 19 30.03 1017 10 16 0.00 0.00
9:52 pm 21:52 Mostly Cloudy 55 12.8 52 11.1 90 90 NNW 8 13 30.01 1016 10 16 0.00 0.00
10:04 pm 22:04 Partly Cloudy 54 12 52 11 94 94 NNW 7 11 30.03 1017 10 16 0.00 0.00
10:52 pm 22:52 Mostly Clear 54 12.2 52 11.1 93 93 NNW 10 17 30.04 1017 10 16 0.00 0.00
11:52 pm 23:52 Mostly Clear 52 11.1 51 10.6 97 97 NNW 8 13 30.06 1018 10 16 0.00 0.00

Powered by AerisWeather